ETH605 HAAB-LLBG

Flight info

Callsign ETH605
Flight time N/A
Altitude 40000
Route RANSO1A RANSO UM308 KONET UG650 RASKA T513 EGMEG G660 JDW L677 CVO A16 MELDO DCT LAKTO N71 BIRES Z89 PIKOG L609 ZUKKO
Aircraft A359/H-SDE2E3GHIJ3J4J5LM1ORWXY/LB1D1

Departure

Time 2026-05-06 15:20
Airport Addis Ababa Bole International Airport (HAAB)

Arrival

Time N/A
Airport Ben Gurion International Airport (LLBG)
Time Latitude Longitude Altitude Speed Heading
2026-05-06 14:55 8.98178 38.79481 7607 ft 0 kts 345°
2026-05-06 15:10 8.98172 38.79482 7627 ft 2 kts 344°
2026-05-06 15:10 8.98156 38.79487 7631 ft 2 kts 343°
2026-05-06 15:10 8.98140 38.79492 7627 ft 2 kts 341°
2026-05-06 15:10 8.98125 38.79498 7632 ft 2 kts 338°
2026-05-06 15:11 8.98110 38.79505 7632 ft 2 kts 333°
2026-05-06 15:11 8.98095 38.79513 7633 ft 2 kts 320°
2026-05-06 15:11 8.98084 38.79526 7636 ft 2 kts 279°
2026-05-06 15:11 8.98084 38.79538 7634 ft 1 kts 259°
2026-05-06 15:12 8.98085 38.79542 7634 ft 0 kts 255°
2026-05-06 15:14 8.98077 38.79515 7632 ft 4 kts 255°
2026-05-06 15:14 8.98069 38.79484 7629 ft 5 kts 255°
2026-05-06 15:14 8.98060 38.79452 7627 ft 5 kts 255°
2026-05-06 15:15 8.98049 38.79412 7627 ft 7 kts 254°
2026-05-06 15:15 8.98032 38.79352 7627 ft 10 kts 254°
2026-05-06 15:15 8.98009 38.79270 7627 ft 14 kts 254°
2026-05-06 15:15 8.97979 38.79169 7627 ft 16 kts 253°
2026-05-06 15:16 8.97942 38.79047 7627 ft 20 kts 253°
2026-05-06 15:16 8.97902 38.78903 7627 ft 23 kts 254°
2026-05-06 15:16 8.97835 38.78755 7627 ft 23 kts 224°
2026-05-06 15:16 8.97758 38.78609 7627 ft 25 kts 252°
2026-05-06 15:17 8.97804 38.78455 7627 ft 21 kts 283°
2026-05-06 15:17 8.97782 38.78346 7627 ft 15 kts 251°
2026-05-06 15:17 8.97740 38.78236 7627 ft 18 kts 233°
2026-05-06 15:17 8.97625 38.78207 7627 ft 16 kts 165°
2026-05-06 15:18 8.97516 38.78234 7628 ft 17 kts 167°
2026-05-06 15:18 8.97394 38.78264 7627 ft 19 kts 160°
2026-05-06 15:18 8.97341 38.78294 7627 ft 0 kts 145°
2026-05-06 15:19 8.97326 38.78305 7626 ft 8 kts 144°
2026-05-06 15:19 8.97279 38.78342 7626 ft 9 kts 139°
2026-05-06 15:19 8.97255 38.78429 7626 ft 27 kts 82°
2026-05-06 15:19 8.97357 38.78799 7627 ft 86 kts 73°
2026-05-06 15:20 8.97583 38.79572 7626 ft 144 kts 73°
2026-05-06 15:20 8.97921 38.80714 7650 ft 192 kts 73°
2026-05-06 15:20 8.98250 38.81946 8654 ft 175 kts 79°
2026-05-06 15:20 8.98475 38.83196 9151 ft 186 kts 81°
2026-05-06 15:21 8.98675 38.84504 9480 ft 190 kts 81°
2026-05-06 15:21 8.98888 38.85836 9823 ft 193 kts 80°
2026-05-06 15:21 8.99038 38.87199 10176 ft 200 kts 88°
2026-05-06 15:21 8.98701 38.88648 10221 ft 220 kts 103°
2026-05-06 15:22 8.97948 38.90010 10530 ft 231 kts 136°
2026-05-06 15:22 8.96457 38.90660 10873 ft 247 kts 170°
2026-05-06 15:22 8.94761 38.90257 11157 ft 261 kts 213°
2026-05-06 15:22 8.93590 38.88849 11465 ft 269 kts 251°
2026-05-06 15:23 8.93424 38.86987 11668 ft 273 kts 288°
2026-05-06 15:23 8.94327 38.85303 11872 ft 275 kts 315°
2026-05-06 15:23 8.95568 38.83794 12037 ft 286 kts 323°
2026-05-06 15:23 8.97083 38.82401 12222 ft 298 kts 323°
2026-05-06 15:24 8.98651 38.80956 12423 ft 311 kts 321°
2026-05-06 15:24 9.00269 38.79444 12609 ft 323 kts 322°
2026-05-06 15:24 9.01949 38.77867 12793 ft 335 kts 321°
2026-05-06 15:24 9.03684 38.76235 12974 ft 346 kts 321°
2026-05-06 15:25 9.05468 38.74551 13147 ft 356 kts 321°
2026-05-06 15:25 9.07801 38.72340 13344 ft 367 kts 321°
2026-05-06 15:25 9.11613 38.68715 13603 ft 384 kts 319°
2026-05-06 15:25 9.15522 38.64986 14182 ft 388 kts 319°
2026-05-06 15:26 9.19486 38.61220 14650 ft 394 kts 320°
2026-05-06 15:26 9.23640 38.57567 15216 ft 395 kts 329°
2026-05-06 15:26 9.28810 38.55912 15779 ft 395 kts
2026-05-06 15:26 9.33961 38.57617 16400 ft 397 kts 31°
2026-05-06 15:27 9.38799 38.60355 17021 ft 400 kts 29°
2026-05-06 15:27 9.43708 38.62904 17673 ft 403 kts 27°
2026-05-06 15:27 9.48825 38.65462 18266 ft 407 kts 27°
2026-05-06 15:27 9.53915 38.67979 18808 ft 409 kts 27°
2026-05-06 15:28 9.59004 38.70490 19286 ft 413 kts 27°
2026-05-06 15:28 9.64265 38.73083 19791 ft 416 kts 27°
2026-05-06 15:28 9.69497 38.75663 20208 ft 421 kts 27°
2026-05-06 15:28 9.74697 38.78227 20658 ft 425 kts 27°
2026-05-06 15:29 9.80167 38.80626 21056 ft 430 kts 18°
2026-05-06 15:29 9.86106 38.81375 21533 ft 434 kts
2026-05-06 15:29 9.92180 38.81392 21895 ft 439 kts
2026-05-06 15:29 9.98324 38.81402 22287 ft 443 kts
2026-05-06 15:30 10.04499 38.81422 22677 ft 446 kts
2026-05-06 15:30 10.10734 38.81507 23045 ft 449 kts
2026-05-06 15:30 10.16980 38.81589 23455 ft 451 kts
2026-05-06 15:30 10.24332 38.81580 23815 ft 454 kts
2026-05-06 15:31 10.35970 38.81489 24419 ft 459 kts
2026-05-06 15:31 10.48815 38.81389 25085 ft 462 kts
2026-05-06 15:31 10.61747 38.81296 25709 ft 467 kts
2026-05-06 15:32 10.88005 38.81103 26994 ft 477 kts
2026-05-06 15:32 11.01340 38.81005 27641 ft 482 kts
2026-05-06 15:32 11.14791 38.80906 28251 ft 487 kts
2026-05-06 15:32 11.28353 38.80807 28862 ft 491 kts
2026-05-06 15:33 11.42132 38.80707 29445 ft 496 kts
2026-05-06 15:33 11.56029 38.80604 30043 ft 500 kts
2026-05-06 15:33 11.69982 38.80501 30560 ft 505 kts
2026-05-06 15:33 11.84120 38.80396 31109 ft 508 kts
2026-05-06 15:34 11.98256 38.80291 31556 ft 512 kts
2026-05-06 15:34 12.12533 38.80186 32281 ft 510 kts
2026-05-06 15:34 12.26733 38.80084 33021 ft 509 kts
2026-05-06 15:34 12.40865 38.79983 33756 ft 509 kts
2026-05-06 15:35 12.55013 38.79880 34584 ft 506 kts
2026-05-06 15:35 12.69051 38.79778 35391 ft 504 kts 360°
2026-05-06 15:35 12.83033 38.79674 36208 ft 501 kts 360°
2026-05-06 15:35 12.96970 38.79560 37082 ft 499 kts 359°
2026-05-06 15:36 13.10801 38.79445 37896 ft 497 kts 359°
2026-05-06 15:36 13.24665 38.79331 38657 ft 496 kts 359°
2026-05-06 15:36 13.38437 38.79217 39254 ft 494 kts 359°
2026-05-06 15:36 13.52138 38.79106 39827 ft 492 kts 359°
2026-05-06 15:37 13.79420 38.78895 39883 ft 494 kts 359°
2026-05-06 15:37 14.06936 38.78684 39891 ft 495 kts 359°
2026-05-06 15:38 14.34500 38.78472 39876 ft 495 kts 359°
2026-05-06 15:38 14.62104 38.78259 39882 ft 496 kts 359°
2026-05-06 15:39 14.89736 38.78046 39919 ft 497 kts 359°
2026-05-06 15:39 15.17414 38.77832 39954 ft 498 kts 359°
2026-05-06 15:40 15.45179 38.77616 39951 ft 499 kts 359°
2026-05-06 15:40 15.72927 38.77401 39932 ft 499 kts 359°
2026-05-06 15:41 16.00741 38.77184 39908 ft 499 kts 359°
2026-05-06 15:41 16.28534 38.76965 39894 ft 500 kts 359°
2026-05-06 15:42 16.56437 38.76746 39874 ft 501 kts 359°
2026-05-06 15:42 16.84364 38.76527 39875 ft 501 kts 359°
2026-05-06 15:43 17.12306 38.76307 39850 ft 502 kts 358°
2026-05-06 15:43 17.40244 38.76085 39847 ft 503 kts 358°
2026-05-06 15:44 17.68265 38.75862 39840 ft 504 kts 358°
2026-05-06 15:44 17.96337 38.75638 39837 ft 505 kts 358°
2026-05-06 15:45 18.24488 38.75412 39837 ft 507 kts 358°
2026-05-06 15:45 18.52585 38.75187 39836 ft 508 kts 357°
2026-05-06 15:46 18.81098 38.74958 39829 ft 510 kts 357°
2026-05-06 15:46 19.09522 38.74728 39829 ft 512 kts 356°
2026-05-06 15:47 19.38047 38.74497 39831 ft 513 kts 356°
2026-05-06 15:47 19.66619 38.74265 39829 ft 514 kts 356°
2026-05-06 15:48 19.95140 38.74032 39826 ft 516 kts 356°
2026-05-06 15:48 20.23843 38.73797 39830 ft 517 kts 356°
2026-05-06 15:49 20.52638 38.73560 39828 ft 518 kts 355°
2026-05-06 15:49 20.81469 38.73322 39835 ft 519 kts 355°
2026-05-06 15:50 21.10360 38.73083 39841 ft 520 kts 355°
2026-05-06 15:50 21.39315 38.72842 39828 ft 521 kts 355°
2026-05-06 15:51 21.68345 38.72599 39831 ft 522 kts 355°
2026-05-06 15:51 21.97410 38.72355 39834 ft 524 kts 354°
2026-05-06 15:52 22.26675 38.72109 39837 ft 526 kts 354°
2026-05-06 15:52 22.56037 38.71862 39845 ft 529 kts 354°
2026-05-06 15:53 22.70136 38.69226 39851 ft 506 kts 333°
2026-05-06 15:53 22.83049 38.63492 39856 ft 501 kts 330°
2026-05-06 15:53 23.08808 38.51977 39865 ft 501 kts 330°
2026-05-06 15:54 23.30312 38.42370 39868 ft 500 kts 330°
2026-05-06 15:54 23.43181 38.36600 39867 ft 500 kts 330°
2026-05-06 15:55 23.56044 38.30825 39869 ft 500 kts 330°
2026-05-06 15:55 23.68904 38.25044 39861 ft 500 kts 330°
2026-05-06 15:56 23.81755 38.19244 39853 ft 499 kts 330°
2026-05-06 15:56 23.94598 38.13437 39817 ft 499 kts 330°
2026-05-06 15:57 24.07430 38.07624 39784 ft 499 kts 330°
2026-05-06 15:57 24.19610 38.00779 39777 ft 485 kts 319°
2026-05-06 15:58 24.30690 37.92489 39774 ft 482 kts 318°
2026-05-06 15:58 24.41741 37.84154 39790 ft 482 kts 318°
2026-05-06 15:59 24.52783 37.75840 39804 ft 481 kts 318°
2026-05-06 15:59 24.74197 37.59672 39846 ft 480 kts 318°
2026-05-06 16:00 24.96156 37.43012 39883 ft 478 kts 318°
2026-05-06 16:00 25.18055 37.26321 39897 ft 477 kts 319°
2026-05-06 16:01 25.36193 37.12453 39887 ft 476 kts 319°
2026-05-06 16:01 25.61470 36.93006 39867 ft 475 kts 319°
2026-05-06 16:02 25.83167 36.76250 39898 ft 475 kts 319°
2026-05-06 16:02 26.04777 36.59472 39892 ft 474 kts 319°
2026-05-06 16:03 26.22093 36.44530 39886 ft 462 kts 309°
2026-05-06 16:03 26.39889 36.23989 39902 ft 460 kts 308°
2026-05-06 16:04 26.57605 36.03467 39911 ft 459 kts 308°
2026-05-06 16:04 26.75309 35.82858 39911 ft 458 kts 309°
2026-05-06 16:05 26.92942 35.62238 39917 ft 458 kts 309°
2026-05-06 16:05 27.10522 35.41578 39916 ft 458 kts 309°
2026-05-06 16:06 27.28069 35.20857 39918 ft 458 kts 309°
2026-05-06 16:06 27.45498 35.00177 39908 ft 458 kts 309°
2026-05-06 16:07 27.63868 34.79937 39917 ft 461 kts 313°
2026-05-06 16:07 27.82431 34.60305 39920 ft 460 kts 312°
2026-05-06 16:08 28.00837 34.40345 39946 ft 455 kts 306°
2026-05-06 16:08 28.16845 34.18297 39952 ft 452 kts 305°
2026-05-06 16:09 28.32745 33.96182 39975 ft 452 kts 305°
2026-05-06 16:09 28.45528 33.78310 39969 ft 453 kts 306°
2026-05-06 16:10 28.53469 33.67166 39975 ft 454 kts 306°
2026-05-06 16:10 28.61390 33.56030 39985 ft 452 kts 306°
2026-05-06 16:11 28.69286 33.44910 39997 ft 452 kts 306°
2026-05-06 16:11 28.77176 33.33751 39986 ft 451 kts 305°
2026-05-06 16:12 28.85035 33.22611 39991 ft 451 kts 305°
2026-05-06 16:12 28.92880 33.11467 39992 ft 450 kts 305°
2026-05-06 16:13 29.00700 33.00325 39997 ft 450 kts 305°
2026-05-06 16:13 29.08508 32.89170 40006 ft 449 kts 305°
2026-05-06 16:14 29.16308 32.77998 40015 ft 449 kts 305°
2026-05-06 16:14 29.24096 32.66812 40019 ft 449 kts 305°
2026-05-06 16:15 29.31798 32.55700 40028 ft 449 kts 305°
2026-05-06 16:15 29.39507 32.44444 40040 ft 448 kts 305°
2026-05-06 16:16 29.47206 32.33191 40044 ft 448 kts 305°
2026-05-06 16:16 29.54906 32.21909 40042 ft 448 kts 305°
2026-05-06 16:17 29.62592 32.10617 40057 ft 448 kts 305°
2026-05-06 16:17 29.70244 31.99343 40053 ft 448 kts 305°
2026-05-06 16:18 29.77909 31.88018 40055 ft 448 kts 305°
2026-05-06 16:18 29.85383 31.76573 40050 ft 447 kts 303°
2026-05-06 16:19 29.92773 31.65047 40034 ft 447 kts 304°
2026-05-06 16:19 30.00171 31.53547 40058 ft 446 kts 304°
2026-05-06 16:20 30.08137 31.42543 40061 ft 453 kts 318°
2026-05-06 16:20 30.13610 31.38859 40051 ft 466 kts 335°
2026-05-06 16:20 30.20033 31.37064 40048 ft 478 kts 346°
2026-05-06 16:21 30.33256 31.34757 40053 ft 481 kts 347°
2026-05-06 16:21 30.46490 31.32373 40058 ft 480 kts 346°
2026-05-06 16:22 30.59673 31.29941 40068 ft 480 kts 346°
2026-05-06 16:22 30.72881 31.27505 40061 ft 480 kts 346°
2026-05-06 16:23 30.86037 31.25071 40080 ft 479 kts 346°
2026-05-06 16:23 30.99215 31.22627 40083 ft 479 kts 346°
2026-05-06 16:24 31.12373 31.20179 40086 ft 478 kts 346°
2026-05-06 16:24 31.25515 31.17730 40095 ft 478 kts 346°
2026-05-06 16:25 31.38632 31.15276 40091 ft 477 kts 346°
2026-05-06 16:25 31.51739 31.12813 40091 ft 477 kts 346°
2026-05-06 16:26 31.70932 31.10631 40093 ft 480 kts 351°
2026-05-06 16:26 31.85605 31.09099 40095 ft 479 kts 350°
2026-05-06 16:27 31.98968 31.09289 40094 ft 494 kts 11°
2026-05-06 16:27 32.05251 31.12759 40095 ft 510 kts 32°
2026-05-06 16:27 32.10292 31.18771 40088 ft 523 kts 51°
2026-05-06 16:28 32.18656 31.32912 40089 ft 531 kts 53°
2026-05-06 16:28 32.25286 31.44209 40049 ft 531 kts 53°
2026-05-06 16:29 32.27372 31.47730 39840 ft 530 kts 53°
2026-05-06 16:29 32.29489 31.51299 39621 ft 530 kts 53°
2026-05-06 16:29 32.31630 31.54914 39385 ft 530 kts 53°
2026-05-06 16:29 32.33719 31.58445 39164 ft 530 kts 53°
2026-05-06 16:30 32.35829 31.62019 38946 ft 530 kts 53°
2026-05-06 16:30 32.37252 31.64432 38786 ft 530 kts 53°
2026-05-06 16:30 32.40042 31.69171 38437 ft 530 kts 53°
2026-05-06 16:30 32.42149 31.72755 38163 ft 530 kts 53°
2026-05-06 16:31 32.44281 31.76384 37887 ft 530 kts 53°
2026-05-06 16:31 32.46355 31.79920 37623 ft 530 kts 53°
2026-05-06 16:31 32.48673 31.83876 37333 ft 530 kts 53°
2026-05-06 16:31 32.50774 31.87466 37082 ft 530 kts 53°
2026-05-06 16:32 32.52876 31.91059 36815 ft 530 kts 53°
2026-05-06 16:32 32.54976 31.94652 36560 ft 530 kts 53°
2026-05-06 16:32 32.57076 31.98249 36312 ft 530 kts 53°
2026-05-06 16:32 32.59173 32.01844 36062 ft 531 kts 53°
2026-05-06 16:33 32.61270 32.05443 35823 ft 530 kts 53°
2026-05-06 16:33 32.63364 32.09040 35578 ft 530 kts 53°
2026-05-06 16:33 32.65467 32.12641 35341 ft 530 kts 52°
2026-05-06 16:34 32.69677 32.19839 34855 ft 531 kts 52°
2026-05-06 16:34 32.71781 32.23438 34626 ft 531 kts 52°
2026-05-06 16:34 32.73884 32.27039 34365 ft 531 kts 52°
2026-05-06 16:34 32.75986 32.30644 33880 ft 531 kts 52°
2026-05-06 16:35 32.78089 32.34251 33365 ft 531 kts 52°
2026-05-06 16:35 32.80196 32.37867 32833 ft 533 kts 52°
2026-05-06 16:35 32.82308 32.41493 32317 ft 534 kts 52°
2026-05-06 16:35 32.84437 32.45117 31812 ft 536 kts 52°
2026-05-06 16:36 32.86593 32.48750 31313 ft 537 kts 52°
2026-05-06 16:36 32.88755 32.52381 30834 ft 538 kts 52°
2026-05-06 16:36 32.90920 32.56021 30339 ft 540 kts 52°
2026-05-06 16:36 32.93084 32.59665 29818 ft 541 kts 52°
2026-05-06 16:37 32.95251 32.63326 29194 ft 540 kts 52°
2026-05-06 16:37 32.97391 32.66950 28410 ft 528 kts 52°
2026-05-06 16:37 32.99494 32.70521 27768 ft 529 kts 52°
2026-05-06 16:37 33.01576 32.74058 27119 ft 526 kts 53°
2026-05-06 16:38 33.03662 32.77598 26745 ft 515 kts 53°
2026-05-06 16:38 33.05598 32.81144 26520 ft 511 kts 60°
2026-05-06 16:38 33.06942 32.85071 26271 ft 513 kts 74°
2026-05-06 16:38 33.07460 32.89260 25826 ft 513 kts 90°
2026-05-06 16:39 33.07019 32.93450 25345 ft 508 kts 107°
2026-05-06 16:39 33.05874 32.97404 24864 ft 504 kts 114°
2026-05-06 16:39 33.04536 33.01252 24392 ft 500 kts 116°
2026-05-06 16:39 33.03132 33.05030 23953 ft 496 kts 117°
2026-05-06 16:40 33.01728 33.08750 23720 ft 492 kts 117°
2026-05-06 16:40 33.00333 33.12469 23465 ft 490 kts 116°
2026-05-06 16:40 32.98961 33.16181 23190 ft 489 kts 116°
2026-05-06 16:40 32.97610 33.19887 22908 ft 487 kts 116°
2026-05-06 16:41 32.96275 33.23585 22669 ft 485 kts 116°
2026-05-06 16:41 32.94949 33.27274 22405 ft 484 kts 115°
2026-05-06 16:41 32.93626 33.30955 21987 ft 483 kts 115°
2026-05-06 16:41 32.92313 33.34611 21478 ft 480 kts 115°
2026-05-06 16:42 32.91005 33.38253 20978 ft 477 kts 115°
2026-05-06 16:42 32.89706 33.41862 20482 ft 474 kts 115°
2026-05-06 16:42 32.88409 33.45460 19990 ft 470 kts 115°
2026-05-06 16:42 32.87123 33.49021 19526 ft 467 kts 115°
2026-05-06 16:43 32.85843 33.52560 19042 ft 465 kts 115°
2026-05-06 16:43 32.84570 33.56077 18773 ft 462 kts 115°
2026-05-06 16:43 32.83283 33.59563 18547 ft 460 kts 117°
2026-05-06 16:43 32.81633 33.62788 18306 ft 455 kts 130°
2026-05-06 16:44 32.79586 33.65647 18033 ft 452 kts 135°
2026-05-06 16:44 32.77455 33.68379 17757 ft 450 kts 136°
2026-05-06 16:44 32.75305 33.71078 17270 ft 448 kts 136°
2026-05-06 16:44 32.73162 33.73748 16767 ft 445 kts 136°
2026-05-06 16:45 32.71030 33.76391 16257 ft 441 kts 137°
2026-05-06 16:45 32.68918 33.79001 15825 ft 435 kts 136°
2026-05-06 16:45 32.66827 33.81578 15563 ft 433 kts 137°
2026-05-06 16:45 32.64731 33.84152 15084 ft 432 kts 137°
2026-05-06 16:46 32.62649 33.86711 14414 ft 430 kts 136°
2026-05-06 16:46 32.60584 33.89252 13755 ft 426 kts 136°
2026-05-06 16:46 32.58537 33.91767 13035 ft 422 kts 136°
2026-05-06 16:46 32.56516 33.94251 12533 ft 413 kts 136°
2026-05-06 16:47 32.54551 33.96675 12283 ft 406 kts 136°
2026-05-06 16:47 32.52634 33.99069 12031 ft 406 kts 135°
2026-05-06 16:47 32.50668 34.01528 11767 ft 405 kts 135°
2026-05-06 16:47 32.48776 34.03896 11619 ft 378 kts 136°
2026-05-06 16:48 32.47623 34.05337 11563 ft 352 kts 136°
2026-05-06 16:48 32.46012 34.07341 11462 ft 320 kts 136°
2026-05-06 16:48 32.44517 34.09201 11259 ft 311 kts 136°
2026-05-06 16:48 32.43147 34.11190 11002 ft 315 kts 124°
2026-05-06 16:49 32.42301 34.13575 10789 ft 315 kts 106°
2026-05-06 16:49 32.41819 34.16083 10554 ft 311 kts 103°
2026-05-06 16:49 32.41387 34.18587 10317 ft 309 kts 102°
2026-05-06 16:49 32.40812 34.21878 9990 ft 308 kts 103°
2026-05-06 16:50 32.40517 34.23547 9778 ft 307 kts 103°
2026-05-06 16:50 32.40079 34.26012 9523 ft 305 kts 103°
2026-05-06 16:50 32.39640 34.28461 9287 ft 304 kts 103°
2026-05-06 16:50 32.39202 34.30906 9058 ft 303 kts 103°
2026-05-06 16:51 32.38766 34.33338 8857 ft 302 kts 103°
2026-05-06 16:51 32.38329 34.35768 8677 ft 301 kts 103°
2026-05-06 16:51 32.37891 34.38181 8496 ft 300 kts 104°
2026-05-06 16:51 32.37452 34.40595 8304 ft 299 kts 104°
2026-05-06 16:52 32.37015 34.43000 8124 ft 299 kts 104°
2026-05-06 16:52 32.36580 34.45395 7938 ft 298 kts 104°
2026-05-06 16:52 32.36143 34.47795 7765 ft 297 kts 104°
2026-05-06 16:52 32.36002 34.48568 7694 ft 297 kts 104°
2026-05-06 16:53 32.35593 34.50805 7524 ft 296 kts 104°
2026-05-06 16:53 32.35017 34.53132 7349 ft 293 kts 114°
2026-05-06 16:53 32.34253 34.55327 7164 ft 293 kts 116°
2026-05-06 16:53 32.33430 34.57568 6992 ft 292 kts 116°
2026-05-06 16:54 32.32625 34.59767 6789 ft 292 kts 117°
2026-05-06 16:54 32.31832 34.61937 6628 ft 291 kts 117°
2026-05-06 16:54 32.31033 34.64127 6438 ft 290 kts 116°
2026-05-06 16:54 32.30238 34.66309 6266 ft 289 kts 116°
2026-05-06 16:55 32.29434 34.68518 6079 ft 288 kts 116°
2026-05-06 16:55 32.28653 34.70662 5906 ft 288 kts 116°
2026-05-06 16:55 32.27865 34.72832 5731 ft 287 kts 116°
2026-05-06 16:55 32.27079 34.74991 5562 ft 286 kts 116°
2026-05-06 16:56 32.26315 34.77090 5417 ft 269 kts 116°
2026-05-06 16:56 32.25585 34.79110 5264 ft 267 kts 116°
2026-05-06 16:56 32.24966 34.81158 5072 ft 264 kts 110°
2026-05-06 16:56 32.24424 34.83231 4913 ft 263 kts 109°
2026-05-06 16:57 32.23892 34.85299 4735 ft 263 kts 109°
2026-05-06 16:57 32.23360 34.87363 4579 ft 263 kts 109°
2026-05-06 16:57 32.22839 34.89383 4416 ft 249 kts 109°
2026-05-06 16:57 32.22360 34.91264 4298 ft 230 kts 109°
2026-05-06 16:58 32.21915 34.93031 4199 ft 220 kts 109°
2026-05-06 16:58 32.21475 34.94755 4099 ft 220 kts 109°
2026-05-06 16:58 32.21024 34.96484 4002 ft 220 kts 109°
2026-05-06 16:58 32.20452 34.98117 3804 ft 215 kts 127°
2026-05-06 16:59 32.19304 34.99134 3623 ft 204 kts 171°
2026-05-06 16:59 32.17922 34.99217 3518 ft 200 kts 192°
2026-05-06 16:59 32.16534 34.99039 3436 ft 198 kts 195°
2026-05-06 16:59 32.15283 34.98652 3259 ft 177 kts 210°
2026-05-06 17:00 32.14225 34.98018 2952 ft 167 kts 218°
2026-05-06 17:00 32.13220 34.97379 2861 ft 158 kts 215°
2026-05-06 17:00 32.12289 34.96785 2653 ft 148 kts 219°
2026-05-06 17:00 32.11395 34.96196 2353 ft 145 kts 217°
2026-05-06 17:01 32.10517 34.95641 2115 ft 141 kts 216°
2026-05-06 17:01 32.09655 34.95098 1924 ft 141 kts 215°
2026-05-06 17:01 32.08794 34.94538 1738 ft 140 kts 216°
2026-05-06 17:01 32.07945 34.93986 1537 ft 139 kts 216°
2026-05-06 17:02 32.07092 34.93434 1343 ft 139 kts 216°
2026-05-06 17:02 32.06247 34.92886 1166 ft 140 kts 215°
2026-05-06 17:02 32.05388 34.92331 978 ft 142 kts 216°
2026-05-06 17:02 32.04520 34.91769 771 ft 144 kts 217°
2026-05-06 17:03 32.03636 34.91172 680 ft 149 kts 217°
2026-05-06 17:03 32.02711 34.90596 426 ft 149 kts 215°
2026-05-06 17:03 32.01820 34.90009 261 ft 147 kts 210°
2026-05-06 17:03 32.00936 34.89444 504 ft 152 kts 211°
2026-05-06 17:04 31.99958 34.88823 1423 ft 165 kts 213°
2026-05-06 17:04 31.99021 34.88001 2364 ft 171 kts 235°
2026-05-06 17:04 31.98455 34.86751 2965 ft 177 kts 252°
2026-05-06 17:04 31.98206 34.85319 3567 ft 182 kts 275°
2026-05-06 17:05 31.98713 34.83978 4263 ft 184 kts 307°
2026-05-06 17:05 31.99643 34.82910 4788 ft 198 kts 318°
2026-05-06 17:05 32.00972 34.82164 4963 ft 220 kts 342°
2026-05-06 17:05 32.02505 34.81895 4995 ft 225 kts 351°
2026-05-06 17:06 32.04071 34.81757 4990 ft 226 kts 352°
2026-05-06 17:06 32.05640 34.81635 4970 ft 232 kts 352°
2026-05-06 17:06 32.07349 34.81499 4970 ft 258 kts 353°
2026-05-06 17:06 32.09185 34.81703 4955 ft 272 kts 12°
2026-05-06 17:07 32.10883 34.82639 4891 ft 275 kts 28°
2026-05-06 17:07 32.12487 34.83879 4900 ft 276 kts 31°
2026-05-06 17:07 32.14092 34.85178 4934 ft 276 kts 31°
2026-05-06 17:07 32.15654 34.86447 4993 ft 276 kts 32°
2026-05-06 17:08 32.17237 34.87734 4951 ft 277 kts 32°
2026-05-06 17:08 32.18816 34.89034 4693 ft 276 kts 33°
2026-05-06 17:08 32.20219 34.90586 4453 ft 279 kts 49°
2026-05-06 17:08 32.21162 34.92580 4202 ft 280 kts 69°
2026-05-06 17:09 32.21373 34.94852 3944 ft 281 kts 97°
2026-05-06 17:09 32.20939 34.97095 3686 ft 280 kts 107°
2026-05-06 17:09 32.20270 34.99246 3443 ft 279 kts 110°
2026-05-06 17:09 32.19697 35.01435 3193 ft 278 kts 106°
2026-05-06 17:10 32.19167 35.03621 2997 ft 275 kts 106°
2026-05-06 17:10 32.18645 35.05796 3179 ft 277 kts 106°
2026-05-06 17:10 32.18145 35.07850 4285 ft 229 kts 107°
2026-05-06 17:10 32.17755 35.09400 5653 ft 175 kts 108°
2026-05-06 17:11 32.17388 35.10791 5687 ft 193 kts 109°
2026-05-06 17:11 32.16916 35.12438 5573 ft 212 kts 111°
2026-05-06 17:11 32.16399 35.14030 5980 ft 204 kts 114°
2026-05-06 17:11 32.15576 35.15339 6179 ft 204 kts 142°
2026-05-06 17:12 32.14287 35.16144 6064 ft 215 kts 171°
2026-05-06 17:12 32.12917 35.15924 6184 ft 196 kts 212°
2026-05-06 17:12 32.11905 35.14865 6125 ft 193 kts 226°
2026-05-06 17:12 32.11046 35.14179 6593 ft 0 kts 203°